Find Kosmos-846

NORAD ID: 9061 Int'l Des: 1976-078 Owner: VMF Country: SU operational
LEOCIRCULARPOLAR

Aktuelle Ansicht

3D-Globus wird geladen...

Über Kosmos-846

Beschreibung wird geladen...

Nächste Überflüge

Passes for default location (London). Set your location on the main map for personalized predictions.

Höhenverlauf

Loading altitude history...

Zweizeiliger Elementsatz

1 9061U 76078A 26151.28701122 .00000061 00000-0 46599-4 0 9996
2 9061 82.9321 73.2508 0040220 223.1649 296.0119 13.76651505772905
Epoch: 31. Mai 2026 • Age: 10 hours

Aktueller Status

Höhe 963.3 km
Geschwindigkeit 7.38 km/s
Subsatellitenpunkt 17.95°N, 100.87°E
Typ other

Most Searched